{"data":{"norad_id":61589,"epoch":"2026-09-21T06:37:46.782624Z","epoch_age_seconds":124974,"freshness":"FRESH","line1":"1 61589U 24187R   26264.27623591 -.00001237  00000+0 -25465-4 0  9996","line2":"2 61589  53.1634 217.7472 0001754  71.8247 288.2946 15.34395612109298","mean_motion":15.34395612,"eccentricity":0.0001754,"inclination_deg":53.1634,"raan_deg":217.7472,"arg_perigee_deg":71.8247,"mean_anomaly_deg":288.2946,"bstar":-2.5465e-5,"rev_number":10929,"period_min":93.848026463204,"perigee_km":461.5163966332,"apogee_km":463.91616796463,"semimajor_km":6840.8532822989,"source":"CELESTRAK","updated_at":"2026-09-22T09:00:49.393462Z"}}